FPO8SN EIDW-LFPG

Flight info

Callsign FPO8SN
Flight time N/A
Altitude 39000
Route ENDEQ3J ENDEQ Q36 EPOXI L15 KEPAD L151 MID Y803 SFD/N0379F250 UM605 BIBAX
Aircraft B738/M-SDE2E3FGHIRWXY/LB1

Departure

Time 2026-05-07 06:49
Airport Dublin Airport (EIDW)

Arrival

Time N/A
Airport Charles de Gaulle International Airport (LFPG)
Time Latitude Longitude Altitude Speed Heading
2026-05-07 06:27 53.42427 -6.26093 210 ft 0 kts 225°
2026-05-07 06:39 53.42435 -6.26078 218 ft 4 kts 224°
2026-05-07 06:39 53.42455 -6.26048 211 ft 4 kts 218°
2026-05-07 06:39 53.42477 -6.26023 213 ft 4 kts 203°
2026-05-07 06:39 53.42499 -6.26017 217 ft 4 kts 144°
2026-05-07 06:40 53.42503 -6.26027 212 ft 1 kts 95°
2026-05-07 06:40 53.42504 -6.26031 212 ft 0 kts 95°
2026-05-07 06:44 53.42502 -6.25995 214 ft 10 kts 95°
2026-05-07 06:44 53.42480 -6.25865 218 ft 13 kts 102°
2026-05-07 06:44 53.42545 -6.25683 210 ft 24 kts 47°
2026-05-07 06:44 53.42661 -6.25478 213 ft 24 kts 46°
2026-05-07 06:45 53.42773 -6.25287 210 ft 23 kts 41°
2026-05-07 06:45 53.42915 -6.25328 215 ft 22 kts 335°
2026-05-07 06:45 53.43052 -6.25433 214 ft 21 kts 338°
2026-05-07 06:45 53.43188 -6.25527 216 ft 23 kts 336°
2026-05-07 06:46 53.43347 -6.25638 210 ft 20 kts 348°
2026-05-07 06:46 53.43404 -6.25494 210 ft 21 kts 95°
2026-05-07 06:46 53.43386 -6.25211 220 ft 26 kts 96°
2026-05-07 06:46 53.43370 -6.24901 210 ft 27 kts 94°
2026-05-07 06:47 53.43362 -6.24609 213 ft 22 kts 68°
2026-05-07 06:47 53.43499 -6.24559 220 ft 21 kts 330°
2026-05-07 06:47 53.43529 -6.24657 220 ft 0 kts 277°
2026-05-07 06:48 53.43529 -6.24664 220 ft 6 kts 277°
2026-05-07 06:48 53.43559 -6.25156 210 ft 81 kts 275°
2026-05-07 06:48 53.43630 -6.26488 214 ft 146 kts 275°
2026-05-07 06:48 53.43751 -6.28401 532 ft 174 kts 277°
2026-05-07 06:49 53.44254 -6.30332 1130 ft 196 kts 309°
2026-05-07 06:49 53.45253 -6.31966 1847 ft 205 kts 313°
2026-05-07 06:49 53.46407 -6.33465 2403 ft 220 kts 332°
2026-05-07 06:49 53.47973 -6.34031 2875 ft 240 kts 354°
2026-05-07 06:50 53.49670 -6.34115 3568 ft 252 kts
2026-05-07 06:50 53.51290 -6.33029 4433 ft 248 kts 38°
2026-05-07 06:50 53.52337 -6.30880 5549 ft 232 kts 71°
2026-05-07 06:50 53.52622 -6.28266 6325 ft 228 kts 91°
2026-05-07 06:51 53.52600 -6.25579 6944 ft 232 kts 95°
2026-05-07 06:51 53.52532 -6.22856 7618 ft 234 kts 95°
2026-05-07 06:51 53.52464 -6.20088 8223 ft 243 kts 94°
2026-05-07 06:51 53.52401 -6.17103 8424 ft 268 kts 94°
2026-05-07 06:52 53.52341 -6.13867 8839 ft 283 kts 94°
2026-05-07 06:52 53.52282 -6.10516 8945 ft 289 kts 94°
2026-05-07 06:52 53.52208 -6.07140 8957 ft 288 kts 97°
2026-05-07 06:52 53.51855 -6.03859 8967 ft 285 kts 106°
2026-05-07 06:53 53.51355 -6.00633 8968 ft 285 kts 107°
2026-05-07 06:53 53.50842 -5.97412 8985 ft 287 kts 107°
2026-05-07 06:53 53.50340 -5.94125 9420 ft 292 kts 106°
2026-05-07 06:53 53.49850 -5.90812 10250 ft 293 kts 106°
2026-05-07 06:54 53.49353 -5.87412 10620 ft 311 kts 106°
2026-05-07 06:54 53.48828 -5.83802 10807 ft 333 kts 105°
2026-05-07 06:54 53.48322 -5.79930 11264 ft 345 kts 104°
2026-05-07 06:54 53.47836 -5.75973 11941 ft 349 kts 104°
2026-05-07 06:55 53.47347 -5.71954 12694 ft 353 kts 103°
2026-05-07 06:55 53.46849 -5.67902 13437 ft 357 kts 103°
2026-05-07 06:55 53.46340 -5.63802 14152 ft 361 kts 104°
2026-05-07 06:55 53.45823 -5.59669 14870 ft 364 kts 104°
2026-05-07 06:56 53.45474 -5.56904 15350 ft 366 kts 104°
2026-05-07 06:56 53.44762 -5.51285 16322 ft 370 kts 104°
2026-05-07 06:56 53.44463 -5.48458 16795 ft 374 kts 98°
2026-05-07 06:56 53.44270 -5.44081 17498 ft 379 kts 94°
2026-05-07 06:57 53.44185 -5.38139 18412 ft 384 kts 92°
2026-05-07 06:57 53.44148 -5.35167 18800 ft 386 kts 93°
2026-05-07 06:57 53.44071 -5.30647 19417 ft 389 kts 94°
2026-05-07 06:57 53.43965 -5.26104 20042 ft 391 kts 94°
2026-05-07 06:58 53.43841 -5.21524 20612 ft 395 kts 94°
2026-05-07 06:58 53.43665 -5.15407 21390 ft 399 kts 94°
2026-05-07 06:58 53.43574 -5.12257 21782 ft 401 kts 94°
2026-05-07 06:58 53.43438 -5.07570 22359 ft 404 kts 94°
2026-05-07 06:59 53.43300 -5.02854 22944 ft 406 kts 94°
2026-05-07 06:59 53.43163 -4.98175 23512 ft 409 kts 94°
2026-05-07 06:59 53.43022 -4.93397 23951 ft 412 kts 94°
2026-05-07 06:59 53.42876 -4.88576 24402 ft 415 kts 94°
2026-05-07 07:00 53.42725 -4.83736 24863 ft 417 kts 94°
2026-05-07 07:00 53.42563 -4.78870 25306 ft 420 kts 94°
2026-05-07 07:00 53.42393 -4.73968 25741 ft 422 kts 94°
2026-05-07 07:00 53.42220 -4.69042 26168 ft 424 kts 94°
2026-05-07 07:01 53.42045 -4.64086 26563 ft 428 kts 94°
2026-05-07 07:01 53.41867 -4.59097 26938 ft 431 kts 94°
2026-05-07 07:01 53.41686 -4.54064 27332 ft 433 kts 94°
2026-05-07 07:01 53.41503 -4.49014 27740 ft 435 kts 94°
2026-05-07 07:02 53.41317 -4.43939 28141 ft 437 kts 94°
2026-05-07 07:02 53.41128 -4.38842 28542 ft 439 kts 94°
2026-05-07 07:02 53.40936 -4.33716 28884 ft 442 kts 94°
2026-05-07 07:02 53.40740 -4.28560 29245 ft 444 kts 94°
2026-05-07 07:03 53.40542 -4.23382 29607 ft 446 kts 94°
2026-05-07 07:03 53.40340 -4.18178 29942 ft 448 kts 94°
2026-05-07 07:03 53.40135 -4.12959 30243 ft 450 kts 94°
2026-05-07 07:03 53.39928 -4.07711 30558 ft 451 kts 94°
2026-05-07 07:04 53.39718 -4.02469 30875 ft 452 kts 94°
2026-05-07 07:04 53.39505 -3.97215 31230 ft 451 kts 94°
2026-05-07 07:04 53.39297 -3.92001 31697 ft 448 kts 94°
2026-05-07 07:04 53.39094 -3.86812 32174 ft 444 kts 94°
2026-05-07 07:05 53.38893 -3.81668 32591 ft 442 kts 94°
2026-05-07 07:05 53.38691 -3.76541 32985 ft 440 kts 94°
2026-05-07 07:05 53.38485 -3.71436 33380 ft 439 kts 94°
2026-05-07 07:05 53.38183 -3.66364 33742 ft 437 kts 100°
2026-05-07 07:06 53.37462 -3.61424 34078 ft 436 kts 109°
2026-05-07 07:06 53.36318 -3.56799 34359 ft 436 kts 114°
2026-05-07 07:06 53.35065 -3.52170 34588 ft 437 kts 114°
2026-05-07 07:06 53.33760 -3.47508 34805 ft 438 kts 118°
2026-05-07 07:07 53.32144 -3.43182 35033 ft 439 kts 127°
2026-05-07 07:07 53.30164 -3.39287 35286 ft 439 kts 131°
2026-05-07 07:07 53.28141 -3.35553 35532 ft 439 kts 132°
2026-05-07 07:07 53.26092 -3.31777 35769 ft 439 kts 131°
2026-05-07 07:08 53.24049 -3.27974 35998 ft 440 kts 131°
2026-05-07 07:08 53.22021 -3.24156 36208 ft 440 kts 131°
2026-05-07 07:08 53.19989 -3.20322 36408 ft 441 kts 131°
2026-05-07 07:08 53.17953 -3.16484 36622 ft 442 kts 131°
2026-05-07 07:09 53.15917 -3.12658 36869 ft 441 kts 131°
2026-05-07 07:09 53.13879 -3.08836 37090 ft 441 kts 131°
2026-05-07 07:09 53.11837 -3.05013 37284 ft 442 kts 132°
2026-05-07 07:09 53.09794 -3.01190 37479 ft 442 kts 132°
2026-05-07 07:10 53.07745 -2.97362 37680 ft 443 kts 132°
2026-05-07 07:10 53.05698 -2.93541 37880 ft 443 kts 132°
2026-05-07 07:10 53.03645 -2.89717 38066 ft 443 kts 132°
2026-05-07 07:10 53.01593 -2.85902 38263 ft 443 kts 132°
2026-05-07 07:11 52.99537 -2.82087 38438 ft 444 kts 132°
2026-05-07 07:11 52.97476 -2.78266 38604 ft 444 kts 132°
2026-05-07 07:11 52.95416 -2.74450 38752 ft 445 kts 133°
2026-05-07 07:11 52.93349 -2.70628 38885 ft 445 kts 132°
2026-05-07 07:12 52.91283 -2.66812 39010 ft 444 kts 133°
2026-05-07 07:12 52.89215 -2.62998 39037 ft 447 kts 133°
2026-05-07 07:12 52.85040 -2.55312 39063 ft 451 kts 133°
2026-05-07 07:13 52.80719 -2.47711 39046 ft 456 kts 139°
2026-05-07 07:13 52.75513 -2.41696 39052 ft 459 kts 148°
2026-05-07 07:14 52.70128 -2.35984 39057 ft 461 kts 147°
2026-05-07 07:14 52.64777 -2.30136 39059 ft 462 kts 147°
2026-05-07 07:15 52.59431 -2.24248 39060 ft 462 kts 147°
2026-05-07 07:15 52.54081 -2.18372 39060 ft 462 kts 147°
2026-05-07 07:16 52.48736 -2.12525 39065 ft 462 kts 147°
2026-05-07 07:16 52.43390 -2.06693 39074 ft 461 kts 147°
2026-05-07 07:17 52.38042 -2.00877 39074 ft 461 kts 147°
2026-05-07 07:17 52.32700 -1.95081 39071 ft 461 kts 147°
2026-05-07 07:18 52.27357 -1.89304 39072 ft 461 kts 147°
2026-05-07 07:18 52.22037 -1.83599 39075 ft 460 kts 147°
2026-05-07 07:19 52.16673 -1.77883 39074 ft 461 kts 147°
2026-05-07 07:19 52.11348 -1.72216 39076 ft 461 kts 147°
2026-05-07 07:20 52.06642 -1.67231 39072 ft 461 kts 147°
2026-05-07 07:20 52.01261 -1.61591 39078 ft 461 kts 147°
2026-05-07 07:21 51.95896 -1.55895 39075 ft 461 kts 147°
2026-05-07 07:21 51.90536 -1.50199 39075 ft 461 kts 147°
2026-05-07 07:22 51.85156 -1.44525 39071 ft 461 kts 147°
2026-05-07 07:22 51.79788 -1.38911 39077 ft 462 kts 147°
2026-05-07 07:23 51.74406 -1.33288 39074 ft 462 kts 147°